Location: Newark
(45.8944°N, 12.5886°E)
Time: 10:58:25
(UTC+00:00)

Envisat - Visible Passes

Search period start: 24 January 2020 00:00
Search period end: 03 February 2020 00:00
Orbit: 764 x 766 km, 98.1° (Epoch: 23 January)

Date Brightness Start Highest point End Pass type
(mag) Time Alt. Az. Time Alt. Az. Time Alt. Az.
24 Jan 5.0 05:10:47 10° NNE 05:15:20 32° E 05:19:50 10° SSE visible
24 Jan 5.6 18:07:57 10° SW 18:11:45 21° W 18:15:35 10° NW visible
25 Jan 6.1 04:35:15 10° NE 04:38:11 15° E 04:41:06 10° SE visible
25 Jan 4.3 17:29:52 10° S 17:34:41 44° W 17:39:34 10° NNW visible
26 Jan 3.9 05:35:57 10° NNE 05:40:57 54° E 05:45:55 10° S visible
26 Jan 3.0 16:52:45 10° SSE 16:57:50 88° ENE 17:02:57 10° NNW visible
26 Jan 6.3 18:35:32 10° WSW 18:37:34 12° W 18:39:35 10° WNW visible
27 Jan 5.4 04:59:44 10° NE 05:03:57 26° E 05:08:09 10° SSE visible
27 Jan 5.3 17:56:08 10° SSW 18:00:21 26° W 18:04:36 10° NW visible
28 Jan 6.3 04:24:49 10° ENE 04:26:45 12° E 04:28:39 10° ESE visible
28 Jan 3.1 06:01:21 10° NNE 06:06:28 90° WNW 06:11:33 10° SSW visible
28 Jan 3.8 17:18:23 10° S 17:23:21 55° W 17:28:22 10° NNW visible
29 Jan 4.4 05:24:46 10° NNE 05:29:36 43° E 05:34:26 10° S visible
29 Jan 3.0 16:41:31 10° SSE 16:46:33 72° ENE 16:51:38 10° N visible
29 Jan 6.0 18:23:08 10° SW 18:26:07 16° W 18:29:07 10° NW visible
30 Jan 5.7 04:48:45 10° NE 04:52:33 21° E 04:56:19 10° SE visible
30 Jan 4.9 17:44:26 10° SSW 17:48:58 32° W 17:53:32 10° NNW visible
31 Jan 3.3 05:50:04 10° NNE 05:55:10 73° ESE 06:00:15 10° S visible
31 Jan 3.4 17:06:59 10° S 17:12:02 69° WSW 17:17:08 10° NNW visible
01 Feb 4.8 05:13:37 10° NNE 05:18:15 34° E 05:22:52 10° SSE visible
01 Feb 5.8 18:11:05 10° SW 18:14:41 19° W 18:18:20 10° NW visible
02 Feb 6.1 04:37:55 10° NE 04:41:07 17° E 04:44:20 10° SE visible
02 Feb 4.5 17:32:51 10° SSW 17:37:36 40° W 17:42:24 10° NNW visible
